TimeMST,TemperatureF,Dew PointF,Humidity,Sea Level PressureIn,VisibilityMPH,Wind Direction,Wind SpeedMPH,Gust SpeedMPH,PrecipitationIn,Events,Conditions,WindDirDegrees,DateUTC
12:53 AM,19.9,12.9,74,30.23,10.0,WSW,5.8,-,N/A,,Clear,240,2012-12-04 07:53:00
1:53 AM,23.0,15.1,72,30.24,10.0,West,8.1,-,N/A,,Clear,280,2012-12-04 08:53:00
2:53 AM,23.0,15.1,72,30.25,10.0,West,9.2,-,N/A,,Clear,280,2012-12-04 09:53:00
3:53 AM,21.9,15.1,75,30.28,10.0,West,9.2,-,N/A,,Clear,280,2012-12-04 10:53:00
4:53 AM,21.9,15.1,75,30.34,10.0,West,9.2,-,N/A,,Clear,280,2012-12-04 11:53:00
5:53 AM,19.9,12.9,74,30.36,10.0,West,4.6,-,N/A,,Clear,260,2012-12-04 12:53:00
6:53 AM,15.1,10.9,84,30.40,10.0,West,5.8,-,N/A,,Clear,270,2012-12-04 13:53:00
7:53 AM,21.9,16.0,78,30.39,10.0,West,4.6,-,N/A,,Clear,270,2012-12-04 14:53:00
8:53 AM,32.0,19.0,59,30.38,10.0,West,6.9,-,N/A,,Clear,260,2012-12-04 15:53:00
9:53 AM,43.0,19.0,38,30.32,10.0,West,4.6,-,N/A,,Clear,270,2012-12-04 16:53:00
10:53 AM,48.0,16.0,28,30.29,10.0,SSW,6.9,-,N/A,,Clear,200,2012-12-04 17:53:00
11:53 AM,50.0,12.9,23,30.26,10.0,Variable,5.8,-,N/A,,Clear,0,2012-12-04 18:53:00
12:53 PM,52.0,10.9,19,30.23,10.0,SW,12.7,-,N/A,,Clear,220,2012-12-04 19:53:00
1:53 PM,52.0,12.0,20,30.18,10.0,South,16.1,-,N/A,,Clear,190,2012-12-04 20:53:00
2:53 PM,50.0,14.0,24,30.18,10.0,South,11.5,-,N/A,,Clear,170,2012-12-04 21:53:00
3:53 PM,48.9,10.9,22,30.17,10.0,SSW,12.7,-,N/A,,Clear,200,2012-12-04 22:53:00
4:53 PM,42.1,10.9,28,30.18,10.0,South,11.5,-,N/A,,Clear,180,2012-12-04 23:53:00
5:53 PM,42.1,10.9,28,30.18,10.0,SSW,15.0,-,N/A,,Clear,200,2012-12-05 00:53:00
6:53 PM,43.0,12.0,28,30.20,10.0,SSW,12.7,-,N/A,,Clear,210,2012-12-05 01:53:00
7:53 PM,35.1,12.0,39,30.21,10.0,South,10.4,-,N/A,,Clear,180,2012-12-05 02:53:00
8:53 PM,37.0,14.0,39,30.17,10.0,SSW,9.2,-,N/A,,Clear,200,2012-12-05 03:53:00
9:53 PM,33.1,14.0,46,30.15,10.0,Calm,Calm,-,N/A,,Clear,0,2012-12-05 04:53:00
10:53 PM,27.0,12.9,56,30.14,10.0,SSE,6.9,-,N/A,,Clear,160,2012-12-05 05:53:00
11:53 PM,28.9,14.0,54,30.12,10.0,SSE,6.9,-,N/A,,Clear,160,2012-12-05 06:53:00